Weather History for Concord, CA

Change the Weather History Date:

Wednesday, February 12, 2014

  Actual Average Record
Temperature  
Mean Temperature 52 °F 52 °F  
Max Temperature 61 °F 60 °F 74 °F (2006)
Min Temperature 43 °F 43 °F 34 °F (2011)
Degree Days  
Heating Degree Days 13    
Month to date heating degree days 173  
Since 1 July heating degree days 1604  
Cooling Degree Days 0    
Month to date cooling degree days 0  
Year to date cooling degree days 0  
Growing Degree Days 2 (Base 50)    
Moisture  
Dew Point 47 °F    
Average Humidity 82    
Maximum Humidity 100    
Minimum Humidity 64    
Precipitation  
Precipitation 0.00 in - 1.61 in (1992)
Month to date precipitation 2.62  
Year to date precipitation 2.72  
Since 1 July precipitation 5.20  
Sea Level Pressure  
Sea Level Pressure 30.20 in    
Wind  
Wind Speed 3 mph (WNW)    
Max Wind Speed 14 mph    
Max Gust Speed 15 mph    
Visibility 9 miles    
Events      
T = Trace of Precipitation, MM = Missing Value Source: NWS Daily Summary

Daily Weather History Graph

Daily Weather History Graph

Search for Another Location

Airport:

Trip Planner

Search our weather history database for the weather conditions in past years. The results will help you decide how hot, cold, wet, or windy it might be!

Date:

Astronomy

Feb. 12, 2014 Rise Set
Actual Time 7:01 AM PST 5:43 PM PST
Civil Twilight 6:34 AM PST 6:10 PM PST
Nautical Twilight 6:03 AM PST 6:41 PM PST
Astronomical Twilight 5:32 AM PST 7:12 PM PST
Moon 4:03 PM PST (2/12) 5:20 AM PST (2/12)
Length of Visible Light 11h 36m
Length of Day
10h 42m
Waxing Gibbous, 96% of the Moon is Illuminated
Feb 12
Waxing Gibbous
Feb 14
Full
Feb 22
Last Quarter
Mar 1
New
Mar 8
First Quarter

Hourly Weather History & Observations

Time (PST) Temp. Windchill Dew Point Humidity Pressure Visibility Wind Dir Wind Speed Gust Speed Precip Events Conditions
12:53 AM 46.9 °F - 46.9 °F 100% 30.21 in 7.0 mi Calm Calm - N/A   Clear
1:53 AM 46.9 °F - 46.9 °F 100% 30.19 in 6.0 mi Calm Calm - N/A   Clear
2:53 AM 45.0 °F - 45.0 °F 100% 30.20 in 8.0 mi Calm Calm - N/A   Clear
3:53 AM 43.0 °F 41.3 °F 43.0 °F 100% 30.18 in 5.0 mi SSE 3.5 mph - N/A   Clear
4:53 AM 43.0 °F - 43.0 °F 100% 30.20 in 8.0 mi Calm Calm - N/A   Clear
5:53 AM 44.1 °F - 44.1 °F 100% 30.19 in 9.0 mi Calm Calm - N/A   Clear
6:53 AM 43.0 °F - 43.0 °F 100% 30.21 in 10.0 mi Calm Calm - N/A   Clear
7:53 AM 45.0 °F 42.6 °F 45.0 °F 100% 30.22 in 6.0 mi SSE 4.6 mph - N/A   Clear
8:24 AM 46.4 °F 45.2 °F 46.4 °F 100% 30.30 in 6.0 mi SW 3.5 mph - N/A   Overcast
8:49 AM 48.2 °F - 48.2 °F 100% 30.28 in 7.0 mi WSW 5.8 mph - N/A   Mostly Cloudy
8:53 AM 50.0 °F - 46.9 °F 89% 30.24 in 7.0 mi SW 3.5 mph - N/A   Overcast
9:00 AM 50.0 °F - 46.4 °F 87% 30.26 in 7.0 mi South 4.6 mph - N/A   Mostly Cloudy
9:07 AM 50.0 °F - 46.4 °F 87% 30.26 in 7.0 mi SSE 4.6 mph - N/A   Overcast
9:53 AM 51.1 °F - 46.9 °F 86% 30.22 in 10.0 mi South 4.6 mph - N/A   Clear
10:53 AM 57.0 °F - 48.0 °F 72% 30.22 in 10.0 mi NW 9.2 mph - N/A   Clear
11:53 AM 55.9 °F - 48.9 °F 77% 30.21 in 9.0 mi NNW 6.9 mph - N/A   Overcast
12:53 PM 57.9 °F - 50.0 °F 75% 30.19 in 9.0 mi NNW 11.5 mph - N/A   Overcast
1:53 PM 59.0 °F - 50.0 °F 72% 30.17 in 9.0 mi North 6.9 mph - N/A   Overcast
2:53 PM 60.1 °F - 48.9 °F 67% 30.15 in 10.0 mi NNE 3.5 mph - N/A   Overcast
3:53 PM 60.1 °F - 48.9 °F 67% 30.15 in 10.0 mi NNW 9.2 mph - N/A   Mostly Cloudy
4:53 PM 60.1 °F - 48.0 °F 64% 30.15 in 10.0 mi NW 5.8 mph - N/A   Overcast
5:53 PM 57.0 °F - 48.9 °F 74% 30.14 in 10.0 mi North 3.5 mph - N/A   Partly Cloudy
6:53 PM 55.9 °F - 50.0 °F 80% 30.15 in 10.0 mi North 3.5 mph - N/A   Overcast
7:53 PM 55.9 °F - 50.0 °F 80% 30.14 in 10.0 mi Calm Calm - N/A   Partly Cloudy
8:53 PM 53.1 °F - 50.0 °F 89% 30.17 in 10.0 mi NNW 3.5 mph - N/A   Clear
9:53 PM 54.0 °F - 50.0 °F 86% 30.17 in 10.0 mi Calm Calm - N/A   Clear
10:53 PM 53.1 °F - 48.9 °F 86% 30.16 in 10.0 mi Calm Calm - 0.00 in   Clear
11:53 PM 54.0 °F - 51.1 °F 90% 30.17 in 10.0 mi Calm Calm - N/A   Clear